| time (UTC) | temp F | wind direction | speed MPH | gust MPH | rain 1hr in | rain 24hr in | rain mn in | humidity % | barometer mb |
| 20260507051047 | 51 | 218 | 1.0 | 6.0 | 0.00 | 0.15 | 0.15 | 37 | 1023.6 |
| 20260507050549 | 51 | 142 | 3.0 | 6.0 | 0.00 | 0.15 | 0.15 | 36 | 1023.7 |
| 20260507050047 | 52 | 156 | 2.0 | 6.0 | 0.00 | 0.15 | 0.15 | 35 | 1023.7 |
| 20260507045547 | 53 | 184 | 2.0 | 4.0 | 0.00 | 0.15 | 0.15 | 33 | 1023.8 |
| 20260507045047 | 53 | 248 | 2.0 | 6.0 | 0.00 | 0.15 | 0.15 | 33 | 1023.8 |
| 20260507044547 | 53 | 234 | 3.0 | 6.0 | 0.00 | 0.15 | 0.15 | 33 | 1023.8 |
| 20260507044046 | 53 | 239 | 3.0 | 5.0 | 0.00 | 0.15 | 0.15 | 33 | 1023.8 |
| 20260507043546 | 53 | 236 | 3.0 | 5.0 | 0.00 | 0.15 | 0.15 | 33 | 1023.8 |
| 20260507043046 | 53 | 246 | 2.0 | 6.0 | 0.00 | 0.15 | 0.15 | 34 | 1023.7 |
| 20260507042546 | 53 | 229 | 3.0 | 6.0 | 0.00 | 0.15 | 0.15 | 34 | 1023.6 |
| 20260507042045 | 53 | 211 | 2.0 | 5.0 | 0.00 | 0.15 | 0.15 | 34 | 1023.7 |
| 20260507041545 | 53 | 233 | 2.0 | 6.0 | 0.00 | 0.15 | 0.15 | 34 | 1023.7 |
| 20260507041051 | 53 | 231 | 3.0 | 8.0 | 0.00 | 0.15 | 0.15 | 34 | 1023.7 |
| 20260507040545 | 53 | 234 | 4.0 | 8.0 | 0.00 | 0.15 | 0.15 | 34 | 1023.7 |
| 20260507040048 | 53 | 227 | 3.0 | 5.0 | 0.00 | 0.15 | 0.15 | 34 | 1023.8 |
| 20260507035544 | 53 | 220 | 2.0 | 5.0 | 0.00 | 0.15 | 0.15 | 34 | 1023.8 |
| 20260507035044 | 53 | 234 | 2.0 | 6.0 | 0.00 | 0.15 | 0.15 | 34 | 1023.8 |
| 20260507034548 | 53 | 233 | 2.0 | 7.0 | 0.00 | 0.15 | 0.15 | 35 | 1023.9 |
| 20260507034045 | 53 | 246 | 3.0 | 7.0 | 0.00 | 0.15 | 0.15 | 35 | 1023.9 |
| 20260507033547 | 53 | 236 | 3.0 | 6.0 | 0.00 | 0.15 | 0.15 | 36 | 1023.8 |
| 20260507033049 | 53 | 207 | 1.0 | 3.0 | 0.00 | 0.15 | 0.15 | 34 | 1023.7 |
| 20260507032544 | 54 | 216 | 1.0 | 5.0 | 0.00 | 0.15 | 0.15 | 34 | 1023.6 |
| 20260507032043 | 54 | 223 | 2.0 | 6.0 | 0.00 | 0.15 | 0.15 | 34 | 1023.5 |
| 20260507031543 | 54 | 198 | 3.0 | 6.0 | 0.00 | 0.15 | 0.15 | 33 | 1023.4 |
| 20260507031046 | 54 | 226 | 0.0 | 0.0 | 0.00 | 0.15 | 0.15 | 33 | 1023.3 |
| 20260507030542 | 55 | 132 | 0.0 | 0.0 | 0.00 | 0.15 | 0.15 | 33 | 1023.3 |
| 20260507030043 | 55 | 132 | 0.0 | 0.0 | 0.00 | 0.15 | 0.15 | 31 | 1023.3 |
| 20260507025541 | 55 | 132 | 0.0 | 0.0 | 0.00 | 0.15 | 0.15 | 31 | 1023.3 |
| 20260507025041 | 56 | 132 | 0.0 | 0.0 | 0.00 | 0.15 | 0.15 | 29 | 1023.3 |
| 20260507024541 | 56 | 131 | 0.0 | 2.0 | 0.00 | 0.15 | 0.15 | 28 | 1023.4 |
| 20260507024044 | 57 | 131 | 0.0 | 2.0 | 0.00 | 0.15 | 0.15 | 28 | 1023.4 |
| 20260507023545 | 58 | 79 | 0.0 | 0.0 | 0.00 | 0.15 | 0.15 | 27 | 1023.3 |
| 20260507023047 | 58 | 79 | 0.0 | 1.0 | 0.00 | 0.15 | 0.15 | 26 | 1023.3 |
| 20260507022541 | 59 | 79 | 0.0 | 1.0 | 0.00 | 0.15 | 0.15 | 25 | 1023.3 |
| 20260507022041 | 59 | 79 | 0.0 | 1.0 | 0.00 | 0.15 | 0.15 | 24 | 1023.3 |
| 20260507021544 | 59 | 79 | 0.0 | 0.0 | 0.00 | 0.15 | 0.15 | 24 | 1023.3 |
| 20260507021041 | 60 | 65 | 0.0 | 0.0 | 0.00 | 0.15 | 0.15 | 23 | 1023.3 |
| 20260507020540 | 61 | 75 | 0.0 | 1.0 | 0.00 | 0.15 | 0.15 | 23 | 1023.3 |
| 20260507020059 | 61 | 28 | 0.0 | 1.0 | 0.00 | 0.15 | 0.15 | 22 | 1023.3 |
| 20260507015539 | 62 | 28 | 0.0 | 3.0 | 0.00 | 0.15 | 0.15 | 22 | 1023.3 |
| 20260507015039 | 61 | 28 | 1.0 | 5.0 | 0.00 | 0.15 | 0.15 | 21 | 1023.3 |
| 20260507014540 | 61 | 26 | 0.0 | 5.0 | 0.00 | 0.15 | 0.15 | 21 | 1023.3 |
| 20260507014039 | 62 | 11 | 3.0 | 5.0 | 0.00 | 0.15 | 0.15 | 22 | 1023.3 |
| 20260507013538 | 62 | 46 | 1.0 | 4.0 | 0.00 | 0.15 | 0.15 | 21 | 1023.4 |
| 20260507013049 | 62 | 281 | 1.0 | 5.0 | 0.00 | 0.15 | 0.15 | 21 | 1023.5 |
| 20260507012539 | 62 | 22 | 1.0 | 7.0 | 0.00 | 0.15 | 0.15 | 22 | 1023.4 |
| 20260507012038 | 62 | 25 | 3.0 | 8.0 | 0.00 | 0.15 | 0.15 | 21 | 1023.4 |
| 20260507011538 | 62 | 50 | 4.0 | 8.0 | 0.00 | 0.15 | 0.15 | 21 | 1023.5 |
| 20260507011041 | 62 | 15 | 5.0 | 8.0 | 0.00 | 0.15 | 0.15 | 22 | 1023.4 |
| 20260507010538 | 62 | 321 | 4.0 | 8.0 | 0.00 | 0.15 | 0.15 | 21 | 1023.5 |
| 20260507010037 | 62 | 319 | 3.0 | 8.0 | 0.00 | 0.15 | 0.15 | 21 | 1023.6 |
| 20260507005536 | 62 | 344 | 3.0 | 10.0 | 0.00 | 0.15 | 0.15 | 21 | 1023.6 |
| 20260507005039 | 62 | 315 | 3.0 | 10.0 | 0.00 | 0.15 | 0.15 | 22 | 1023.6 |
| 20260507004547 | 62 | 4 | 2.0 | 9.0 | 0.00 | 0.15 | 0.15 | 21 | 1023.6 |
| 20260507004036 | 62 | 318 | 2.0 | 11.0 | 0.00 | 0.15 | 0.15 | 21 | 1023.7 |
| 20260507003536 | 62 | 326 | 5.0 | 11.0 | 0.00 | 0.15 | 0.15 | 21 | 1023.7 |
| 20260507003042 | 62 | 335 | 4.0 | 12.0 | 0.00 | 0.15 | 0.15 | 22 | 1023.7 |
| 20260507002535 | 62 | 3 | 6.0 | 12.0 | 0.00 | 0.15 | 0.15 | 22 | 1023.6 |
| 20260507002035 | 62 | 35 | 5.0 | 14.0 | 0.00 | 0.15 | 0.15 | 21 | 1023.6 |
| 20260507001543 | 62 | 20 | 3.0 | 14.0 | 0.00 | 0.15 | 0.15 | 21 | 1023.5 |
| 20260507001034 | 62 | 15 | 8.0 | 13.0 | 0.00 | 0.15 | 0.15 | 21 | 1023.6 |
| 20260507000533 | 62 | 323 | 4.0 | 11.0 | 0.00 | 0.15 | 0.15 | 22 | 1023.7 |
| 20260507000035 | 62 | 41 | 3.0 | 13.0 | 0.00 | 0.15 | 0.15 | 22 | 1023.6 |
| 20260506235533 | 62 | 269 | 3.0 | 14.0 | 0.00 | 0.15 | 0.15 | 23 | 1023.6 |
| 20260506235035 | 62 | 335 | 4.0 | 14.0 | 0.00 | 0.15 | 0.15 | 22 | 1023.6 |
| 20260506234537 | 62 | 53 | 4.0 | 11.0 | 0.00 | 0.15 | 0.15 | 22 | 1023.7 |
| 20260506234031 | 62 | 6 | 5.0 | 11.0 | 0.00 | 0.15 | 0.15 | 22 | 1023.6 |
| 20260506233531 | 61 | 34 | 6.0 | 14.0 | 0.00 | 0.15 | 0.15 | 21 | 1023.6 |
| 20260506233031 | 61 | 7 | 6.0 | 14.0 | 0.00 | 0.15 | 0.15 | 22 | 1023.6 |
| 20260506232530 | 61 | 2 | 4.0 | 14.0 | 0.00 | 0.15 | 0.15 | 21 | 1023.6 |
| 20260506232030 | 62 | 340 | 9.0 | 17.0 | 0.00 | 0.15 | 0.15 | 22 | 1023.7 |
| 20260506231530 | 62 | 281 | 6.0 | 17.0 | 0.00 | 0.15 | 0.15 | 21 | 1023.7 |
| 20260506231030 | 61 | 357 | 1.0 | 11.0 | 0.00 | 0.15 | 0.15 | 22 | 1023.7 |
| 20260506230529 | 61 | 5 | 7.0 | 14.0 | 0.00 | 0.15 | 0.15 | 22 | 1023.7 |
| 20260506230029 | 61 | 27 | 6.0 | 18.0 | 0.00 | 0.15 | 0.15 | 23 | 1023.7 |
| 20260506225529 | 61 | 335 | 7.0 | 15.0 | 0.00 | 0.17 | 0.15 | 23 | 1023.7 |
| 20260506225029 | 62 | 356 | 7.0 | 14.0 | 0.00 | 0.17 | 0.15 | 23 | 1023.7 |
| 20260506224532 | 61 | 15 | 5.0 | 15.0 | 0.00 | 0.17 | 0.15 | 23 | 1023.7 |
| 20260506224029 | 61 | 321 | 7.0 | 15.0 | 0.00 | 0.17 | 0.15 | 23 | 1023.9 |
| 20260506223527 | 61 | 353 | 6.0 | 12.0 | 0.00 | 0.17 | 0.15 | 22 | 1023.9 |
| 20260506223034 | 61 | 293 | 4.0 | 15.0 | 0.00 | 0.17 | 0.15 | 24 | 1023.8 |
| 20260506222527 | 61 | 354 | 5.0 | 16.0 | 0.00 | 0.17 | 0.15 | 23 | 1023.9 |
| 20260506222028 | 61 | 347 | 8.0 | 16.0 | 0.00 | 0.17 | 0.15 | 23 | 1024.0 |
| 20260506221524 | 61 | 310 | 7.0 | 15.0 | 0.00 | 0.17 | 0.15 | 24 | 1023.9 |
| 20260506221024 | 60 | 316 | 6.0 | 19.0 | 0.00 | 0.17 | 0.15 | 24 | 1023.9 |
| 20260506220523 | 60 | 308 | 8.0 | 18.0 | 0.00 | 0.17 | 0.15 | 24 | 1024.0 |
| 20260506220025 | 60 | 290 | 7.0 | 15.0 | 0.00 | 0.17 | 0.15 | 24 | 1023.9 |
| 20260506215522 | 60 | 328 | 5.0 | 16.0 | 0.00 | 0.17 | 0.15 | 25 | 1024.2 |
| 20260506215026 | 60 | 354 | 8.0 | 16.0 | 0.00 | 0.17 | 0.15 | 25 | 1024.2 |
| 20260506214535 | 59 | 21 | 5.0 | 18.0 | 0.00 | 0.17 | 0.15 | 25 | 1024.2 |
| 20260506214022 | 59 | 307 | 10.0 | 18.0 | 0.00 | 0.17 | 0.15 | 25 | 1024.4 |
| 20260506213520 | 59 | 25 | 5.0 | 16.0 | 0.00 | 0.17 | 0.15 | 25 | 1024.3 |
| 20260506213023 | 59 | 314 | 7.0 | 16.0 | 0.00 | 0.17 | 0.15 | 25 | 1024.3 |
| 20260506212521 | 59 | 320 | 7.0 | 20.0 | 0.00 | 0.17 | 0.15 | 25 | 1024.3 |
| 20260506212021 | 59 | 342 | 9.0 | 19.0 | 0.00 | 0.17 | 0.15 | 25 | 1024.5 |
| 20260506211520 | 59 | 316 | 5.0 | 14.0 | 0.00 | 0.17 | 0.15 | 26 | 1024.5 |
| 20260506211019 | 59 | 289 | 7.0 | 17.0 | 0.00 | 0.17 | 0.15 | 26 | 1024.5 |
| 20260506210518 | 58 | 314 | 7.0 | 17.0 | 0.00 | 0.17 | 0.15 | 26 | 1024.4 |
| 20260506210021 | 59 | 326 | 7.0 | 16.0 | 0.00 | 0.17 | 0.15 | 26 | 1024.3 |
| 20260506205518 | 58 | 319 | 7.0 | 18.0 | 0.00 | 0.17 | 0.15 | 26 | 1024.3 |
| 20260506205018 | 58 | 296 | 9.0 | 21.0 | 0.00 | 0.17 | 0.15 | 25 | 1024.4 |
| 20260506204518 | 59 | 319 | 12.0 | 21.0 | 0.00 | 0.17 | 0.15 | 25 | 1024.5 |
| 20260506204016 | 58 | 319 | 7.0 | 17.0 | 0.00 | 0.17 | 0.15 | 26 | 1024.4 |
| 20260506203516 | 58 | 310 | 10.0 | 19.0 | 0.00 | 0.17 | 0.15 | 25 | 1024.5 |
| 20260506203019 | 58 | 285 | 8.0 | 23.0 | 0.00 | 0.17 | 0.15 | 26 | 1024.4 |
| 20260506202518 | 58 | 320 | 12.0 | 23.0 | 0.00 | 0.17 | 0.15 | 25 | 1024.6 |
| 20260506202015 | 58 | 9 | 6.0 | 25.0 | 0.00 | 0.17 | 0.15 | 27 | 1024.5 |
| 20260506201515 | 58 | 1 | 9.0 | 25.0 | 0.00 | 0.17 | 0.15 | 25 | 1024.6 |
| 20260506201016 | 57 | 315 | 5.0 | 19.0 | 0.00 | 0.17 | 0.15 | 27 | 1024.6 |
| 20260506200513 | 57 | 301 | 9.0 | 0.0 | 0.00 | 0.00 | 0.15 | 27 | 1024.6 |
| 20260506200013 | 57 | 326 | 7.0 | 19.0 | 0.00 | 0.17 | 0.15 | 27 | 1024.7 |
| 20260506195513 | 57 | 317 | 6.0 | 15.0 | 0.00 | 0.17 | 0.15 | 27 | 1024.6 |
| 20260506195013 | 57 | 3 | 8.0 | 16.0 | 0.00 | 0.17 | 0.15 | 27 | 1024.6 |
| 20260506194513 | 58 | 302 | 7.0 | 16.0 | 0.00 | 0.17 | 0.15 | 27 | 1024.5 |
| 20260506194017 | 57 | 331 | 5.0 | 17.0 | 0.00 | 0.17 | 0.15 | 28 | 1024.5 |
| 20260506193511 | 57 | 15 | 10.0 | 22.0 | 0.00 | 0.17 | 0.15 | 24 | 1024.6 |
| 20260506193010 | 56 | 340 | 11.0 | 25.0 | 0.00 | 0.17 | 0.15 | 23 | 1024.6 |
| 20260506192511 | 56 | 13 | 14.0 | 25.0 | 0.00 | 0.17 | 0.15 | 23 | 1024.6 |
| 20260506192009 | 56 | 2 | 14.0 | 22.0 | 0.00 | 0.17 | 0.15 | 23 | 1024.4 |
| 20260506191509 | 56 | 6 | 9.0 | 20.0 | 0.00 | 0.17 | 0.15 | 24 | 1024.5 |
| 20260506191009 | 56 | 324 | 12.0 | 21.0 | 0.00 | 0.17 | 0.15 | 23 | 1024.6 |
| 20260506190509 | 56 | 320 | 11.0 | 23.0 | 0.00 | 0.17 | 0.15 | 24 | 1024.5 |
| 20260506190009 | 55 | 294 | 7.0 | 23.0 | 0.00 | 0.17 | 0.15 | 24 | 1024.5 |
| 20260506185504 | 55 | 316 | 13.0 | 22.0 | 0.00 | 0.17 | 0.15 | 25 | 1024.6 |
| 20260506185004 | 55 | 37 | 7.0 | 16.0 | 0.00 | 0.17 | 0.15 | 27 | 1024.7 |
| 20260506184503 | 55 | 6 | 10.0 | 16.0 | 0.00 | 0.17 | 0.15 | 27 | 1024.7 |
| 20260506184006 | 55 | 337 | 6.0 | 16.0 | 0.00 | 0.17 | 0.15 | 28 | 1024.7 |
| 20260506183504 | 54 | 25 | 9.0 | 21.0 | 0.00 | 0.17 | 0.15 | 26 | 1024.7 |
| 20260506183005 | 54 | 28 | 8.0 | 21.0 | 0.00 | 0.17 | 0.15 | 24 | 1024.8 |
| 20260506182501 | 54 | 342 | 9.0 | 17.0 | 0.00 | 0.17 | 0.15 | 25 | 1024.8 |
| 20260506182003 | 54 | 21 | 7.0 | 18.0 | 0.00 | 0.17 | 0.15 | 26 | 1024.7 |
| 20260506181624 | 54 | 40 | 9.0 | 18.0 | 0.00 | 0.17 | 0.15 | 26 | 1024.7 |
| 20260506181100 | 54 | 353 | 7.0 | 18.0 | 0.00 | 0.17 | 0.15 | 26 | 1024.8 |
| 20260506180601 | 53 | 331 | 9.0 | 17.0 | 0.00 | 0.17 | 0.15 | 26 | 1024.8 |
| 20260506180059 | 53 | 15 | 7.0 | 22.0 | 0.00 | 0.17 | 0.15 | 26 | 1024.7 |
| 20260506175559 | 53 | 339 | 8.0 | 22.0 | 0.00 | 0.17 | 0.15 | 28 | 1024.7 |
| 20260506175057 | 53 | 311 | 11.0 | 20.0 | 0.00 | 0.17 | 0.15 | 28 | 1024.6 |
| 20260506174557 | 53 | 34 | 8.0 | 16.0 | 0.00 | 0.17 | 0.15 | 29 | 1024.6 |
| 20260506174057 | 53 | 14 | 8.0 | 16.0 | 0.00 | 0.17 | 0.15 | 29 | 1024.6 |
| 20260506173556 | 53 | 12 | 9.0 | 17.0 | 0.00 | 0.17 | 0.15 | 26 | 1024.6 |
| 20260506173104 | 53 | 15 | 11.0 | 18.0 | 0.00 | 0.17 | 0.15 | 25 | 1024.5 |
| 20260506172556 | 53 | 31 | 10.0 | 18.0 | 0.00 | 0.17 | 0.15 | 27 | 1024.3 |
| 20260506172054 | 53 | 357 | 10.0 | 17.0 | 0.00 | 0.17 | 0.15 | 29 | 1024.2 |
| 20260506171554 | 53 | 342 | 8.0 | 17.0 | 0.00 | 0.17 | 0.15 | 29 | 1024.2 |
| 20260506171053 | 52 | 28 | 7.0 | 20.0 | 0.00 | 0.17 | 0.15 | 31 | 1024.1 |
| 20260506170554 | 52 | 9 | 10.0 | 20.0 | 0.00 | 0.17 | 0.15 | 29 | 1024.1 |
| 20260506170055 | 52 | 316 | 10.0 | 19.0 | 0.00 | 0.17 | 0.15 | 30 | 1024.0 |
| 20260506165555 | 52 | 360 | 10.0 | 20.0 | 0.00 | 0.17 | 0.15 | 26 | 1023.9 |
| 20260506165051 | 52 | 15 | 12.0 | 20.0 | 0.00 | 0.17 | 0.15 | 23 | 1024.0 |
| 20260506164551 | 52 | 342 | 9.0 | 18.0 | 0.00 | 0.17 | 0.15 | 23 | 1023.8 |
| 20260506164050 | 52 | 345 | 9.0 | 25.0 | 0.00 | 0.17 | 0.15 | 24 | 1023.7 |
| 20260506163549 | 52 | 320 | 13.0 | 25.0 | 0.00 | 0.17 | 0.15 | 22 | 1023.7 |
| 20260506163050 | 52 | 29 | 9.0 | 18.0 | 0.00 | 0.17 | 0.15 | 28 | 1023.4 |
| 20260506162547 | 52 | 316 | 10.0 | 19.0 | 0.00 | 0.17 | 0.15 | 31 | 1023.4 |
| 20260506162049 | 51 | 360 | 11.0 | 19.0 | 0.00 | 0.17 | 0.15 | 30 | 1023.2 |
| 20260506161548 | 51 | 355 | 11.0 | 20.0 | 0.00 | 0.17 | 0.15 | 34 | 1023.3 |
| 20260506161048 | 51 | 355 | 10.0 | 21.0 | 0.00 | 0.17 | 0.15 | 34 | 1023.1 |
| 20260506160544 | 51 | 335 | 11.0 | 21.0 | 0.00 | 0.17 | 0.15 | 35 | 1023.0 |
| 20260506160052 | 51 | 341 | 10.0 | 19.0 | 0.00 | 0.17 | 0.15 | 37 | 1023.1 |
| 20260506155547 | 51 | 351 | 9.0 | 19.0 | 0.00 | 0.17 | 0.15 | 39 | 1022.9 |
| 20260506155043 | 50 | 7 | 12.0 | 18.0 | 0.00 | 0.17 | 0.15 | 38 | 1022.9 |
| 20260506154543 | 50 | 321 | 9.0 | 17.0 | 0.00 | 0.17 | 0.15 | 38 | 1022.8 |
| 20260506154044 | 50 | 354 | 9.0 | 17.0 | 0.00 | 0.17 | 0.15 | 40 | 1022.7 |
| 20260506153542 | 50 | 352 | 10.0 | 17.0 | 0.00 | 0.17 | 0.15 | 38 | 1022.7 |
| 20260506153104 | 50 | 1 | 10.0 | 17.0 | 0.00 | 0.17 | 0.15 | 37 | 1022.6 |
| 20260506152543 | 50 | 27 | 9.0 | 19.0 | 0.00 | 0.17 | 0.15 | 39 | 1022.6 |
| 20260506152041 | 50 | 323 | 10.0 | 19.0 | 0.00 | 0.17 | 0.15 | 34 | 1022.7 |
| 20260506151544 | 50 | 16 | 11.0 | 19.0 | 0.00 | 0.17 | 0.15 | 36 | 1022.5 |
| 20260506151044 | 50 | 49 | 10.0 | 19.0 | 0.00 | 0.17 | 0.15 | 33 | 1022.4 |
| 20260506150538 | 50 | 317 | 10.0 | 19.0 | 0.00 | 0.17 | 0.15 | 35 | 1022.3 |
| 20260506150047 | 50 | 325 | 6.0 | 16.0 | 0.00 | 0.17 | 0.15 | 40 | 1022.1 |
| 20260506145538 | 50 | 347 | 8.0 | 0.0 | 0.00 | 0.00 | 0.15 | 40 | 1022.1 |
| 20260506145037 | 50 | 347 | 6.0 | 15.0 | 0.00 | 0.17 | 0.15 | 46 | 1022.1 |
| 20260506144536 | 50 | 37 | 7.0 | 13.0 | 0.00 | 0.17 | 0.15 | 47 | 1022.1 |
| 20260506144036 | 50 | 4 | 5.0 | 13.0 | 0.00 | 0.17 | 0.15 | 47 | 1022.0 |
| 20260506143536 | 50 | 356 | 8.0 | 11.0 | 0.00 | 0.17 | 0.15 | 46 | 1022.0 |
| 20260506143035 | 49 | 13 | 4.0 | 8.0 | 0.00 | 0.17 | 0.15 | 47 | 1021.8 |
| 20260506142533 | 49 | 309 | 3.0 | 9.0 | 0.00 | 0.17 | 0.15 | 46 | 1021.9 |
| 20260506142033 | 49 | 349 | 5.0 | 10.0 | 0.00 | 0.17 | 0.15 | 48 | 1021.9 |
| 20260506141533 | 49 | 336 | 5.0 | 10.0 | 0.00 | 0.17 | 0.15 | 49 | 1021.9 |
| 20260506141033 | 48 | 342 | 3.0 | 7.0 | 0.00 | 0.17 | 0.15 | 50 | 1021.9 |
| 20260506140634 | 48 | 359 | 3.0 | 8.0 | 0.00 | 0.17 | 0.15 | 51 | 1021.9 |
| 20260506140032 | 48 | 20 | 4.0 | 10.0 | 0.00 | 0.17 | 0.15 | 50 | 1021.6 |
| 20260506135531 | 48 | 23 | 5.0 | 10.0 | 0.00 | 0.17 | 0.15 | 50 | 1021.5 |
| 20260506135030 | 47 | 305 | 3.0 | 8.0 | 0.00 | 0.17 | 0.15 | 52 | 1021.5 |
| 20260506134532 | 47 | 3 | 3.0 | 8.0 | 0.00 | 0.17 | 0.15 | 55 | 1021.5 |
| 20260506134029 | 46 | 337 | 2.0 | 5.0 | 0.00 | 0.17 | 0.15 | 60 | 1021.5 |
| 20260506133528 | 46 | 329 | 2.0 | 5.0 | 0.00 | 0.17 | 0.15 | 62 | 1021.3 |
| 20260506133028 | 45 | 333 | 1.0 | 3.0 | 0.00 | 0.17 | 0.15 | 65 | 1021.2 |
| 20260506132531 | 45 | 300 | 0.0 | 2.0 | 0.00 | 0.17 | 0.15 | 68 | 1021.0 |
| 20260506132026 | 44 | 271 | 1.0 | 3.0 | 0.00 | 0.17 | 0.15 | 70 | 1020.9 |
| 20260506131533 | 44 | 288 | 0.0 | 3.0 | 0.00 | 0.17 | 0.15 | 70 | 1020.8 |
| 20260506131024 | 43 | 281 | 1.0 | 4.0 | 0.00 | 0.17 | 0.15 | 71 | 1020.7 |
| 20260506130523 | 43 | 281 | 2.0 | 3.0 | 0.00 | 0.17 | 0.15 | 72 | 1020.6 |
| 20260506130023 | 43 | 278 | 1.0 | 3.0 | 0.00 | 0.17 | 0.15 | 71 | 1020.6 |
| 20260506125521 | 43 | 276 | 0.0 | 3.0 | 0.00 | 0.17 | 0.15 | 71 | 1020.4 |
| 20260506125021 | 43 | 293 | 0.0 | 4.0 | 0.00 | 0.17 | 0.15 | 71 | 1020.4 |
| 20260506124521 | 43 | 275 | 0.0 | 4.0 | 0.00 | 0.17 | 0.15 | 71 | 1020.4 |
| 20260506124020 | 43 | 276 | 1.0 | 4.0 | 0.00 | 0.17 | 0.15 | 70 | 1020.1 |
| 20260506123519 | 43 | 254 | 1.0 | 4.0 | 0.00 | 0.17 | 0.15 | 70 | 1020.0 |
| 20260506123019 | 43 | 274 | 1.0 | 4.0 | 0.00 | 0.17 | 0.15 | 70 | 1020.0 |
| 20260506122519 | 43 | 282 | 1.0 | 4.0 | 0.00 | 0.17 | 0.15 | 69 | 1020.0 |
| 20260506122018 | 43 | 286 | 2.0 | 5.0 | 0.00 | 0.17 | 0.15 | 70 | 1019.9 |
| 20260506121518 | 43 | 309 | 3.0 | 7.0 | 0.00 | 0.17 | 0.15 | 69 | 1019.9 |
| 20260506121017 | 43 | 271 | 2.0 | 7.0 | 0.00 | 0.17 | 0.15 | 68 | 1019.8 |
| 20260506120516 | 43 | 295 | 1.0 | 4.0 | 0.00 | 0.17 | 0.15 | 67 | 1019.9 |
| 20260506120019 | 43 | 291 | 1.0 | 4.0 | 0.00 | 0.17 | 0.15 | 66 | 1019.6 |
| 20260506115516 | 43 | 290 | 0.0 | 5.0 | 0.00 | 0.17 | 0.15 | 67 | 1019.8 |
| 20260506115015 | 43 | 297 | 2.0 | 6.0 | 0.00 | 0.17 | 0.15 | 67 | 1019.6 |
| 20260506114521 | 43 | 276 | 3.0 | 6.0 | 0.00 | 0.17 | 0.15 | 66 | 1019.6 |
| 20260506114015 | 43 | 281 | 1.0 | 6.0 | 0.00 | 0.17 | 0.15 | 67 | 1019.6 |
| 20260506113515 | 43 | 295 | 2.0 | 6.0 | 0.00 | 0.17 | 0.15 | 67 | 1019.7 |
| 20260506113027 | 43 | 291 | 2.0 | 5.0 | 0.00 | 0.17 | 0.15 | 67 | 1019.7 |
| 20260506112513 | 43 | 295 | 2.0 | 6.0 | 0.00 | 0.17 | 0.15 | 67 | 1019.6 |
| 20260506112014 | 43 | 289 | 3.0 | 8.0 | 0.00 | 0.17 | 0.15 | 67 | 1019.5 |
| 20260506111513 | 43 | 318 | 4.0 | 8.0 | 0.00 | 0.17 | 0.15 | 66 | 1019.5 |
| 20260506111013 | 42 | 304 | 3.0 | 8.0 | 0.00 | 0.17 | 0.15 | 67 | 1019.4 |
| 20260506110513 | 42 | 349 | 3.0 | 10.0 | 0.00 | 0.17 | 0.15 | 68 | 1019.5 |
| 20260506110013 | 42 | 316 | 4.0 | 10.0 | 0.00 | 0.17 | 0.15 | 68 | 1019.6 |
| 20260506105512 | 42 | 318 | 3.0 | 13.0 | 0.00 | 0.17 | 0.15 | 69 | 1019.5 |
| 20260506105011 | 43 | 335 | 4.0 | 13.0 | 0.00 | 0.17 | 0.15 | 69 | 1019.4 |
| 20260506104510 | 43 | 6 | 6.0 | 13.0 | 0.00 | 0.17 | 0.15 | 68 | 1019.4 |
| 20260506104010 | 43 | 323 | 6.0 | 12.0 | 0.00 | 0.17 | 0.15 | 69 | 1019.3 |
| 20260506103508 | 42 | 305 | 5.0 | 12.0 | 0.01 | 0.17 | 0.15 | 70 | 1019.1 |
| 20260506103012 | 42 | 314 | 5.0 | 11.0 | 0.01 | 0.17 | 0.15 | 71 | 1018.9 |
| 20260506102507 | 42 | 11 | 4.0 | 12.0 | 0.01 | 0.17 | 0.15 | 72 | 1018.7 |
| 20260506102008 | 42 | 314 | 5.0 | 13.0 | 0.01 | 0.17 | 0.15 | 73 | 1018.9 |
| 20260506101508 | 42 | 311 | 6.0 | 13.0 | 0.01 | 0.17 | 0.15 | 74 | 1018.5 |
| 20260506101004 | 42 | 333 | 5.0 | 9.0 | 0.01 | 0.17 | 0.15 | 77 | 1018.5 |
| 20260506100504 | 42 | 325 | 4.0 | 9.0 | 0.01 | 0.17 | 0.15 | 78 | 1018.3 |
| 20260506100004 | 42 | 292 | 3.0 | 9.0 | 0.01 | 0.17 | 0.15 | 78 | 1018.2 |
| 20260506095501 | 42 | 308 | 5.0 | 9.0 | 0.03 | 0.17 | 0.15 | 78 | 1018.1 |
| 20260506095100 | 42 | 308 | 4.0 | 11.0 | 0.03 | 0.17 | 0.15 | 79 | 1018.0 |
| 20260506094600 | 42 | 313 | 4.0 | 11.0 | 0.04 | 0.17 | 0.15 | 79 | 1017.8 |
| 20260506094103 | 42 | 331 | 4.0 | 8.0 | 0.07 | 0.17 | 0.15 | 82 | 1017.7 |
| 20260506093559 | 42 | 321 | 3.0 | 8.0 | 0.09 | 0.16 | 0.14 | 84 | 1017.6 |
| 20260506093058 | 42 | 345 | 3.0 | 8.0 | 0.11 | 0.16 | 0.14 | 85 | 1017.6 |
| 20260506092558 | 42 | 332 | 4.0 | 9.0 | 0.11 | 0.16 | 0.14 | 86 | 1017.7 |
| 20260506092059 | 42 | 330 | 3.0 | 9.0 | 0.14 | 0.16 | 0.14 | 87 | 1017.5 |
| 20260506091600 | 42 | 16 | 2.0 | 7.0 | 0.14 | 0.16 | 0.14 | 88 | 1017.3 |
| 20260506091058 | 42 | 354 | 2.0 | 9.0 | 0.14 | 0.16 | 0.14 | 88 | 1017.2 |
| 20260506090558 | 42 | 340 | 3.0 | 11.0 | 0.14 | 0.16 | 0.14 | 88 | 1017.1 |
| 20260506090100 | 42 | 50 | 3.0 | 13.0 | 0.14 | 0.16 | 0.14 | 87 | 1017.0 |
| 20260506085553 | 42 | 60 | 5.0 | 14.0 | 0.12 | 0.14 | 0.12 | 86 | 1016.9 |
| 20260506085052 | 42 | 42 | 7.0 | 22.0 | 0.12 | 0.14 | 0.12 | 86 | 1017.0 |
| 20260506084552 | 42 | 39 | 9.0 | 22.0 | 0.10 | 0.12 | 0.10 | 84 | 1016.7 |
| 20260506084049 | 43 | 73 | 11.0 | 24.0 | 0.08 | 0.10 | 0.08 | 81 | 1016.6 |
| 20260506083547 | 46 | 27 | 15.0 | 24.0 | 0.05 | 0.07 | 0.05 | 74 | 1016.4 |
| 20260506083046 | 48 | 18 | 11.0 | 20.0 | 0.03 | 0.05 | 0.03 | 71 | 1016.1 |
| 20260506082544 | 49 | 27 | 2.0 | 6.0 | 0.03 | 0.05 | 0.03 | 78 | 1015.3 |
| 20260506082043 | 49 | 345 | 2.0 | 3.0 | 0.00 | 0.02 | 0.00 | 78 | 1014.8 |
| 20260506081542 | 49 | 130 | 0.0 | 0.0 | 0.00 | 0.02 | 0.00 | 77 | 1014.3 |
| 20260506081042 | 49 | 130 | 0.0 | 0.0 | 0.00 | 0.02 | 0.00 | 76 | 1014.4 |
| 20260506080541 | 49 | 130 | 0.0 | 1.0 | 0.00 | 0.02 | 0.00 | 75 | 1014.4 |
| 20260506073035 | 51 | 101 | 0.0 | 2.0 | 0.00 | 0.02 | 0.00 | 70 | 1014.8 |
| 20260506072534 | 51 | 104 | 0.0 | 4.0 | 0.00 | 0.02 | 0.00 | 66 | 1014.9 |
| 20260506072034 | 51 | 196 | 0.0 | 7.0 | 0.00 | 0.02 | 0.00 | 65 | 1014.9 |
| 20260506071535 | 51 | 132 | 1.0 | 7.0 | 0.00 | 0.02 | 0.00 | 65 | 1014.8 |
| 20260506071033 | 51 | 78 | 4.0 | 6.0 | 0.00 | 0.02 | 0.00 | 67 | 1014.8 |
| 20260506070531 | 52 | 75 | 1.0 | 5.0 | 0.00 | 0.02 | 0.00 | 66 | 1014.8 |
| 20260506062025 | 53 | 229 | 1.0 | 6.0 | 0.00 | 0.02 | 0.00 | 58 | 1014.3 |
| 20260506061523 | 53 | 240 | 2.0 | 6.0 | 0.00 | 0.02 | 0.00 | 59 | 1014.2 |
| 20260506061021 | 53 | 248 | 2.0 | 9.0 | 0.00 | 0.02 | 0.00 | 59 | 1014.1 |
| 20260506060521 | 52 | 274 | 5.0 | 9.0 | 0.00 | 0.02 | 0.00 | 60 | 1014.0 |